Regional Weather Roundup
Issued by NWS

Home | Current Version | Previous Version | Text Only | Print | Product List | Glossary On
Versions: 1 2 3 4 5 6 7 8 9 10 11 12 13 14 15 16 17 18 19 20 21 22 23 24 25 26 27 28 29 30 31 32 33 34 35 36 37 38 39 40 41 42 43 44 45 46 47 48 49 50
000
ASUS43 KDTX 240710
RWRMI
MICHIGAN HOURLY REGIONAL WEATHER ROUNDUP
NATIONAL WEATHER SERVICE DETROIT/PONTIAC MI
300 AM EDT SAT JUN 24 2017

NOTE: "FAIR" INDICATES FEW OR NO CLOUDS BELOW 12,000 FEET WITH NO
SIGNIFICANT WEATHER AND/OR OBSTRUCTION TO VISIBILITY.

MIZ047>049-052>055-059>063-066>070-074>076-081>083-240800-
SOUTHEAST LOWER MICHIGAN

CITY           SKY/WX    TMP DP  RH WIND       PRES   REMARKS
ADRIAN         CLOUDY    63  54  72 W7        29.78F
ALMA           CLEAR     61  56  85 W6        29.75S
ANN ARBOR      CLOUDY    60  55  83 SW7       29.75F
BAD AXE        CLOUDY    58  51  77 NE3       29.72S
CARO           PTCLDY    62  55  79 W5        29.72S
DETROIT CITY   CLOUDY    67  55  65 W6        29.74R
DETROIT        CLOUDY    66  55  67 W7        29.75F
FLINT          PTCLDY    63  53  70 W8        29.74F
GROSSE ILE     CLOUDY    65  56  71 W7        29.74S
HILLSDALE      PTCLDY    59  52  77 W6        29.79S
HOWELL         CLOUDY    64  53  68 W5        29.76S

CITY           SKY/WX    TMP DP  RH WIND       PRES   REMARKS
JACKSON        PTCLDY    62  53  72 W7        29.78S
LAMBERTVILLE   MOCLDY    63  55  77 CALM      29.77S
LANSING        MOCLDY    65  54  67 W8        29.77S
LAPEER         MOCLDY    64  52  64 W5        29.73F
MASON          PTCLDY    64  55  73 W8        29.77S
MONROE         PTCLDY    63  55  76 W7        29.76S
MT. CLEMENS    CLOUDY    65  55  69 W7        29.71S
PONTIAC        CLOUDY    65  54  67 W6        29.73F
PORT HOPE        N/A     63  52  67 NW6       29.71R
PORT HURON     MOCLDY    59  54  82 CALM      29.71S
TRI CITIES     PTCLDY    62  56  80 W9        29.73S
MIDLAND        FAIR      61  54  76 W3        29.72F
TROY           CLOUDY    66  53  62 W6        29.76S
SAGINAW HB     CLEAR     61  52  72 W7        29.72S
$$
MIZ043>046-050>051-056>058-064>065-071>073-077>080-240800-
SOUTHWEST LOWER MICHIGAN

CITY           SKY/WX    TMP DP  RH WIND       PRES   REMARKS
BATTLE CREEK   PTCLDY    61  56  83 W7        29.81R
BENTON HARBOR  CLOUDY    66  57  72 W10       29.83S
BIG RAPIDS     MOCLDY    59  52  78 NW3       29.76S
COLDWATER      PTCLDY    60  56  84 W5        29.80F
FREMONT        FAIR      59  54  83 W6        29.78R
HOLLAND        CLEAR     65  55  70 W7        29.81R
GRAND RAPIDS   CLEAR     63  57  81 W7        29.78S
IONIA          FAIR      63  55  75 W7        29.77S
KALAMAZOO      PTCLDY    63  53  70 W8        29.81S
LUDINGTON      CLOUDY    61  56  82 NW7       29.77R
MARSHALL       PTCLDY    59  56  88 W5        29.79S
MOUNT PLEASANT PTCLDY    61  54  77 W3        29.73F
MUSKEGON       CLEAR     65  56  72 NW9       29.79R
SOUTH HAVEN    CLEAR     66  58  77 W7        29.82S
$$
MIZ016>042-240800-
NORTHERN LOWER MICHIGAN

CITY           SKY/WX    TMP DP  RH WIND       PRES   REMARKS
ALPENA         CLEAR     56  52  86 W3        29.71S
BEAVER ISLAND  CLEAR     50  49  99 CALM      29.73S
BELLAIRE       PTCLDY    53  51  94 CALM      29.74S
CADILLAC       CLEAR     52  51  96 CALM      29.75F
CHARLEVOIX     CLOUDY    58  55  89 CALM      29.75S
FRANKFORT      MOCLDY    53  50  90 CALM      29.75S
GAYLORD        MOCLDY    54  48  80 W3        29.74S
GRAYLING       CLEAR     51  49  96 CALM      29.75S
HARBOR SPRINGS CLEAR     53  52  98 CALM      29.73R
HOUGHTON LAKE  CLOUDY    57  54  89 CALM      29.75S
MANISTEE       CLEAR     56  55  97 CALM      29.75S
OSCODA         CLOUDY    58  52  80 W6        29.71S
PELLSTON       CLEAR     49  46  90 CALM      29.72S
ROGERS CITY    CLEAR     55  50  83 W3        29.72S
TRAVERSE CITY  PTCLDY    56  53  90 CALM      29.73S
$$
MIZ007>008-015-240800-
EASTERN UPPER MICHIGAN

CITY           SKY/WX    TMP DP  RH WIND       PRES   REMARKS
KINROSS        CLEAR     48  46  93 W8        29.70R
MACKINAC ISLAN CLEAR     55  50  82 W7        29.70S
NEWBERRY       CLEAR     48  47  97 W5        29.71R
S. S. MARIE    CLEAR     50  47  89 VRB3      29.68R
MUNISING         N/A     49  48  97 S6        29.72R
$$
MIZ004>006-011>014-085-240800-
CENTRAL UPPER MICHIGAN

CITY           SKY/WX    TMP DP  RH WIND       PRES   REMARKS
MANISTIQUE     CLEAR     47  44  90 CALM      29.72S
ESCANABA       CLEAR     55  50  83 W7        29.73S
MENOMINEE      CLEAR     56  51  84 VRB3      29.77R
SAWYER-GWINN   CLEAR     50  47  88 W7        29.75R
$$
MIZ001>003-009>011-084-240800-
WESTERN UPPER MICHIGAN

CITY           SKY/WX    TMP DP  RH WIND       PRES   REMARKS
IRON MOUNTAIN  PTCLDY    53  46  77 N6        29.75F
HOUGHTON       CLEAR     52  47  83 NW12      29.75R
COPPER HARBOR    N/A     55  48  77 N7        29.73R
IRONWOOD       CLOUDY    57  53  86 W12       29.83R
$$

ABBREVIATIONS USED IN REMARKS
   TC - TEMPERATURE IN CELSIUS
  WCI - WIND CHILL INDEX
   HX - HEAT INDEX
  VSB - VISIBILITY




USA.gov is the U.S. government's official web portal to all federal, state and local government web resources and services.